Location: Unspecified
(0.0000°N, 0.0000°E)
Time: 01:09:45
(UTC+01:00)

Vanguard 1 - Visible Passes

Search period start: 27 November 2014 00:00
Search period end: 07 December 2014 00:00
Orbit: 652 x 3835 km, 34.3° (Epoch: 24 November)

Date Brightness Start Highest point End Pass type
(mag) Time Alt. Az. Time Alt. Az. Time Alt. Az.
27 Nov 13.0 04:57:07 12° NNW 05:04:07 17° NNE 05:10:13 10° NE visible
27 Nov 12.5 19:13:20 10° SW 19:26:37 67° SE 19:46:17 15° ENE visible
27 Nov 12.9 21:35:41 10° WSW 21:53:15 56° NW 21:59:03 49° N visible
28 Nov 14.0 00:06:44 10° WNW 00:11:49 17° WNW 00:11:49 17° WNW visible
28 Nov 13.6 03:04:40 11° NNE 03:04:40 11° NNE 03:05:47 10° NNE visible
28 Nov 12.7 05:17:25 10° NNW 05:27:04 22° NNE 05:33:42 10° ENE visible
28 Nov 12.4 19:34:42 10° SW 19:48:30 84° SE 20:06:43 20° NE visible
28 Nov 13.1 21:58:27 10° W 22:16:03 45° NNW 22:19:29 43° NNW visible
29 Nov 14.2 00:32:10 10° WNW 00:32:15 10° WNW 00:32:15 10° WNW visible
29 Nov 13.4 03:24:59 15° NNE 03:24:59 15° NNE 03:29:39 10° NE visible
29 Nov 12.3 05:38:35 10° NNW 05:49:44 29° NNE 05:56:36 10° E visible
29 Nov 12.5 19:56:19 10° WSW 20:10:34 80° NW 20:27:08 24° NE visible
29 Nov 13.3 22:21:44 10° W 22:39:09 37° NNW 22:39:55 37° NNW visible
30 Nov 13.2 03:45:19 19° N 03:45:20 19° N 03:53:37 10° NE visible
30 Nov 11.9 06:00:06 10° NW 06:12:08 40° NNE 06:19:00 10° E visible
30 Nov 12.7 20:18:13 10° WSW 20:32:52 65° NW 20:47:34 28° NE visible
30 Nov 13.5 22:45:37 10° WNW 23:00:20 30° NNW 23:00:20 30° NNW visible
01 Dec 13.0 04:05:41 21° N 04:08:42 23° NNE 04:17:17 10° ENE visible
01 Dec 11.4 06:21:48 10° NW 06:34:16 56° NNE 06:41:00 10° ESE visible
01 Dec 12.9 20:40:29 10° WSW 20:55:26 52° NNW 21:07:58 30° NNE visible
01 Dec 13.7 23:10:08 10° WNW 23:20:44 23° NW 23:20:44 23° NW visible
02 Dec 12.7 04:26:04 23° N 04:31:44 29° NNE 04:40:29 10° ENE visible
02 Dec 13.1 21:03:10 10° W 21:18:17 42° NNW 21:28:20 30° NNE visible
02 Dec 13.9 23:35:08 10° WNW 23:41:06 17° NW 23:41:06 17° NW visible
03 Dec 13.6 02:33:42 14° NE 02:33:42 14° NE 02:36:07 10° NE visible
03 Dec 12.4 04:46:28 23° NNW 04:54:29 37° NNE 05:03:11 10° E visible
03 Dec 12.3 19:01:44 10° WSW 19:13:30 75° NW 19:34:37 10° NE visible
03 Dec 13.3 21:26:22 10° W 21:41:28 34° NNW 21:48:41 29° N visible
04 Dec 14.1 00:00:17 10° NW 00:01:27 11° NW 00:01:27 11° NW visible
04 Dec 13.3 02:54:07 20° NE 02:54:07 20° NE 03:00:05 10° ENE visible
04 Dec 12.0 05:06:53 22° NNW 05:16:55 49° NNE 05:25:27 10° ESE visible
04 Dec 12.6 19:23:38 10° WSW 19:35:45 59° NNW 19:56:15 11° NE visible
04 Dec 13.5 21:50:06 10° WNW 22:05:02 28° NNW 22:09:00 27° N visible
05 Dec 13.1 03:14:32 27° NNE 03:14:32 27° NNE 03:23:40 10° ENE visible
05 Dec 11.6 05:27:18 19° NW 05:39:04 66° NNE 05:47:20 10° ESE visible
05 Dec 12.8 19:45:52 10° W 19:58:18 47° NNW 20:16:32 14° NE visible
05 Dec 13.6 22:14:22 10° WNW 22:28:58 24° NNW 22:29:17 24° NNW visible
06 Dec 12.8 03:34:57 35° NNE 03:35:48 35° NNE 03:46:45 10° E visible
06 Dec 11.3 05:47:43 15° NW 06:00:56 89° NE 06:08:54 10° SE visible
06 Dec 13.1 20:08:32 10° W 20:21:10 37° NNW 20:36:47 16° NNE visible
06 Dec 13.8 22:38:59 10° NW 22:49:32 20° NNW 22:49:32 20° NNW visible
